Flag for Germany Weather past 2 weeks in Springe, Lower Saxony, Germany

Now
61 °F

Passing clouds.


Feels Like: 61 °F
Forecast: 50 / 57 °F
Wind: 13 mph from Southwest

Location: Wunstorf Airport

Current Time: Sep 4, 2015 at 12:37:25 PM

Latest Report: Sep 4, 2015 at 11:20 AM


Visibility: N/A

Pressure: 29.92 "Hg

Humidity: 59%

Dew point: 46 °F

Location of SpringeLocation

Historic Weather in Springe — Graph

°F

Springe temperature yesterday

Maximum temperature yesterday: 64 °F (at 3:20 PM)
Minimum temperature yesterday: 52 °F (at 2:20 AM)
Average temperature yesterday: 57 °F

Past Weeks' High & Low Weather Summary

 TemperatureHumidityPressure
High91 °F (Aug 31, 5:20 PM)100% (Aug 21, 1:20 AM)30.27 "Hg (Aug 21, 1:20 AM)
Low50 °F (Aug 29, 6:20 AM)32% (Aug 22, 1:20 PM)29.59 "Hg (Aug 24, 6:20 PM)
Average65 °F72%29.96 "Hg
* Reported Aug 20 11:20 AM — Sep 4 11:20 AM, Springe, Weather by CustomWeather, © 2015

Note: Actual official high and low records may vary slightly from our data, if they occured in-between our weather recording intervals... More about our weather records

Advertising

Springe weather history for previous 24 hours

 ConditionsComfort  
Time TempWeatherWind HumidityBarometerVisibility
11:20 AM
Fri, Sep 4
61 °FPassing clouds.13 mph59%29.92 "HgN/A
10:20 AM59 °FPassing clouds.16 mph68%29.92 "HgN/A
9:20 AM57 °FPassing clouds.12 mph77%29.92 "HgN/A
8:20 AM54 °FScattered clouds.8 mph88%29.92 "Hg6 mi
7:20 AM52 °FPartly cloudy.10 mph88%29.92 "HgN/A
6:20 AM52 °FCool.6 mph88%29.92 "Hg2 mi
5:20 AM52 °FCool.8 mph88%29.92 "Hg2 mi
4:20 AM52 °FCool.7 mph88%29.92 "Hg3 mi
3:20 AM50 °FCool.7 mph88%29.92 "Hg3 mi
2:20 AM52 °FCool.8 mph82%29.92 "Hg3 mi
1:20 AM52 °FCool.7 mph82%29.95 "Hg3 mi
12:20 AM50 °FCool.7 mph88%29.92 "Hg3 mi
11:20 PM
Thu, Sep 3
52 °FCool.8 mph82%29.92 "Hg3 mi
10:20 PM54 °FCool.6 mph77%29.95 "Hg3 mi
9:20 PM55 °FCool.2 mph72%29.92 "Hg3 mi
8:20 PM59 °FScattered clouds.5 mph63%29.92 "HgN/A
7:20 PM61 °FScattered showers. Scattered clouds.7 mph63%29.92 "HgN/A
6:20 PM64 °FScattered clouds.7 mph52%29.89 "HgN/A
5:20 PM64 °FScattered clouds.6 mph56%29.89 "HgN/A
4:20 PM64 °FScattered clouds.6 mph60%29.89 "HgN/A
3:20 PM64 °FScattered clouds.5 mph60%29.92 "HgN/A
2:20 PM63 °FScattered showers. Scattered clouds.13 mph68%29.92 "HgN/A
1:20 PM63 °FScattered clouds.6 mph64%29.92 "HgN/A
12:20 PM63 °FScattered clouds.7 mph68%29.95 "HgN/A
Weather by CustomWeather, © 2015

See weather overviewHow to use our weather pages